Tracking 18850 objects as of 22-Nov-2017
HD Live streaming from Space Station
objects crossing your sky now

UCLSAT

Track UCLSAT now!
10-day predictions


NORAD ID: 42765
Int'l Code: 2017-036A
Perigee: 499.8 km
Apogee: 518.6 km
Inclination: 97.4 °
Period: 94.7 minutes
Semi major axis: 6880 km
RCS: Unknown
Launch date: June 23, 2017
Source: United Kingdom (UK)
Launch site: SRIHARIKOTA (SRI)
aabbcc
Your satellite tracking list
Your tracking list is empty




NASA's NSSDC Master Catalog

Two Line Element Set (TLE):
1 42765U 17036A   17326.11870328 +.00002745 +00000-0 +12571-3 0  9997
2 42765 097.4308 024.0252 0013680 083.7198 276.5595 15.21261174023819
Source of the keplerian elements: AFSPC